• In Belarus
  • List of Countries
  • For 7 days
  • Water Temperature
  • Satellite Maps
  • Weather Map
  • Weather Widgets
  • user-avatar
    Login

    Hourly Weather Graz

    Today, 22 February, Friday

    Time Temperature Precipitation Wind Pressure Humidity
    00:00 +8°C° 0 mm 1 mps 730 mmHg 80%
    01:00 +7°C° 0 mm 1 mps 730 mmHg 83%
    02:00 +7°C° 0 mm 1 mps 729 mmHg 83%
    03:00 +7°C° 0 mm 1 mps 729 mmHg 83%
    04:00 +6°C° 0 mm 2 mps 729 mmHg 83%
    05:00 +6°C° 0.1 mm 2 mps 728 mmHg 83%
    06:00 +6°C° 0.1 mm 2 mps 728 mmHg 82%
    07:00 +6°C° 0.1 mm 2 mps 728 mmHg 82%
    08:00 +7°C° 0.2 mm 2 mps 729 mmHg 76%
    09:00 +9°C° 0.2 mm 3 mps 729 mmHg 71%
    10:00 +10°C° 0.2 mm 3 mps 729 mmHg 65%
    11:00 +10°C° 0.1 mm 4 mps 730 mmHg 63%
    12:00 +10°C° 0.1 mm 4 mps 730 mmHg 60%
    13:00 +11°C° 0.1 mm 4 mps 730 mmHg 58%
    14:00 +9°C° 0 mm 5 mps 731 mmHg 58%
    15:00 +9°C° 0 mm 5 mps 731 mmHg 58%
    16:00 +9°C° 0 mm 5 mps 732 mmHg 57%
    17:00 +7°C° 0 mm 4 mps 732 mmHg 63%
    18:00 +5°C° 0 mm 3 mps 733 mmHg 68%
    19:00 +5°C° 0 mm 2 mps 734 mmHg 73%
    20:00 +4°C° 0 mm 2 mps 735 mmHg 73%
    21:00 +3°C° 0 mm 2 mps 736 mmHg 73%
    22:00 +2°C° 0 mm 2 mps 736 mmHg 73%
    23:00 +1°C° 0 mm 2 mps 737 mmHg 72%

    Tomorrow, 23 February, Saturday

    Time Temperature Precipitation Wind Pressure Humidity
    00:00 -1°C° 0 mm 2 mps 738 mmHg 70%
    01:00 -1°C° 0 mm 2 mps 738 mmHg 69%
    02:00 -2°C° 0 mm 2 mps 738 mmHg 67%
    03:00 -2°C° 0 mm 2 mps 738 mmHg 64%
    04:00 -1°C° 0 mm 1 mps 738 mmHg 62%
    05:00 -1°C° 0 mm 1 mps 739 mmHg 59%
    06:00 -2°C° 0 mm 1 mps 739 mmHg 56%
    07:00 -2°C° 0 mm 1 mps 739 mmHg 53%
    08:00 -3°C° 0 mm 2 mps 739 mmHg 44%
    09:00 -2°C° 0 mm 2 mps 739 mmHg 36%
    10:00 -1°C° 0 mm 2 mps 739 mmHg 27%
    11:00 +1°C° 0 mm 2 mps 739 mmHg 25%
    12:00 +2°C° 0 mm 2 mps 739 mmHg 22%
    13:00 +3°C° 0 mm 2 mps 739 mmHg 20%
    14:00 +3°C° 0 mm 2 mps 739 mmHg 22%
    15:00 +3°C° 0 mm 2 mps 738 mmHg 24%
    16:00 +3°C° 0 mm 2 mps 738 mmHg 26%
    17:00 +2°C° 0 mm 2 mps 739 mmHg 32%
    18:00 +1°C° 0 mm 1 mps 739 mmHg 38%
    19:00 0°C° 0 mm 1 mps 739 mmHg 44%
    20:00 -1°C° 0 mm 1 mps 739 mmHg 45%
    21:00 -2°C° 0 mm 0 mps 740 mmHg 46%
    22:00 -2°C° 0 mm 0 mps 740 mmHg 47%
    23:00 -2°C° 0 mm 0 mps 740 mmHg 47%

    Day after tomorrow, 24 February, Sunday

    Time Temperature Precipitation Wind Pressure Humidity
    00:00 -2°C° 0 mm 0 mps 740 mmHg 47%
    01:00 -2°C° 0 mm 0 mps 740 mmHg 47%
    02:00 -2°C° 0 mm 0 mps 740 mmHg 46%
    03:00 -2°C° 0 mm 0 mps 739 mmHg 45%
    04:00 -3°C° 0 mm 0 mps 739 mmHg 44%
    05:00 -3°C° 0 mm 0 mps 739 mmHg 43%
    06:00 -3°C° 0 mm 0 mps 739 mmHg 42%
    07:00 -3°C° 0 mm 0 mps 739 mmHg 41%
    08:00 -1°C° 0 mm 0 mps 739 mmHg 36%
    09:00 +2°C° 0 mm 1 mps 740 mmHg 30%
    10:00 +4°C° 0 mm 1 mps 740 mmHg 25%
    11:00 +5°C° 0 mm 1 mps 740 mmHg 24%
    12:00 +6°C° 0 mm 1 mps 739 mmHg 22%
    13:00 +7°C° 0 mm 1 mps 739 mmHg 21%
    14:00 +7°C° 0 mm 1 mps 739 mmHg 23%
    15:00 +7°C° 0 mm 1 mps 739 mmHg 25%
    16:00 +7°C° 0 mm 1 mps 738 mmHg 27%
    17:00 +5°C° 0 mm 1 mps 739 mmHg 33%
    18:00 +2°C° 0 mm 0 mps 739 mmHg 38%
    19:00 0°C° 0 mm 0 mps 739 mmHg 44%
    20:00 0°C° 0 mm 0 mps 739 mmHg 45%
    21:00 0°C° 0 mm 0 mps 740 mmHg 47%
    22:00 +1°C° 0 mm 1 mps 740 mmHg 48%
    23:00 +1°C° 0 mm 1 mps 740 mmHg 50%

    25 February, Monday

    Time Temperature Precipitation Wind Pressure Humidity
    00:00 +1°C° 0 mm 1 mps 740 mmHg 51%
    01:00 +1°C° 0 mm 1 mps 740 mmHg 52%
    02:00 +1°C° 0 mm 1 mps 739 mmHg 54%
    03:00 +2°C° 0 mm 1 mps 739 mmHg 55%
    04:00 +2°C° 0 mm 1 mps 739 mmHg 56%
    05:00 +2°C° 0 mm 1 mps 739 mmHg 58%
    06:00 +2°C° 0 mm 1 mps 739 mmHg 59%
    07:00 +2°C° 0 mm 1 mps 739 mmHg 60%
    08:00 +5°C° 0 mm 1 mps 739 mmHg 55%
    09:00 +7°C° 0 mm 1 mps 739 mmHg 50%
    10:00 +10°C° 0 mm 1 mps 739 mmHg 45%
    11:00 +11°C° 0 mm 1 mps 739 mmHg 46%
    12:00 +12°C° 0 mm 1 mps 739 mmHg 47%
    13:00 +14°C° 0 mm 1 mps 738 mmHg 49%
    14:00 +13°C° 0 mm 1 mps 738 mmHg 51%
    15:00 +13°C° 0 mm 1 mps 738 mmHg 54%
    16:00 +13°C° 0 mm 1 mps 737 mmHg 57%
    17:00 +11°C° 0 mm 1 mps 737 mmHg 64%
    18:00 +9°C° 0 mm 1 mps 737 mmHg 71%
    19:00 +7°C° 0 mm 1 mps 737 mmHg 79%
    20:00 +5°C° 0 mm 2 mps 737 mmHg 78%
    21:00 +5°C° 0 mm 2 mps 737 mmHg 78%
    22:00 +4°C° 0 mm 2 mps 737 mmHg 77%
    23:00 +4°C° 0 mm 2 mps 737 mmHg 76%

    26 February, Tuesday

    Time Temperature Precipitation Wind Pressure Humidity
    00:00 +4°C° 0 mm 2 mps 736 mmHg 74%
    01:00 +4°C° 0 mm 2 mps 736 mmHg 72%
    02:00 +4°C° 0 mm 2 mps 736 mmHg 72%
    03:00 +3°C° 0 mm 2 mps 736 mmHg 72%
    04:00 +3°C° 0 mm 2 mps 735 mmHg 72%
    05:00 +3°C° 0 mm 2 mps 735 mmHg 72%
    06:00 +3°C° 0 mm 2 mps 735 mmHg 71%
    07:00 +3°C° 0 mm 2 mps 735 mmHg 70%
    08:00 +5°C° 0 mm 2 mps 735 mmHg 62%
    09:00 +8°C° 0 mm 2 mps 735 mmHg 55%
    10:00 +10°C° 0 mm 2 mps 735 mmHg 47%
    11:00 +13°C° 0 mm 2 mps 735 mmHg 44%
    12:00 +14°C° 0 mm 2 mps 734 mmHg 40%
    13:00 +16°C° 0 mm 2 mps 734 mmHg 37%
    14:00 +15°C° 0 mm 2 mps 733 mmHg 40%
    15:00 +15°C° 0 mm 2 mps 733 mmHg 42%
    16:00 +15°C° 0 mm 2 mps 732 mmHg 45%
    17:00 +13°C° 0 mm 2 mps 733 mmHg 52%
    18:00 +10°C° 0 mm 2 mps 733 mmHg 59%
    19:00 +9°C° 0 mm 2 mps 733 mmHg 66%
    20:00 +8°C° 0 mm 2 mps 733 mmHg 65%
    21:00 +8°C° 0 mm 2 mps 733 mmHg 64%
    22:00 +8°C° 0 mm 2 mps 733 mmHg 62%
    23:00 +7°C° 0 mm 2 mps 733 mmHg 66%

    27 February, Wednesday

    Time Temperature Precipitation Wind Pressure Humidity
    00:00 +7°C° 0 mm 2 mps 733 mmHg 70%
    01:00 +6°C° 0 mm 2 mps 733 mmHg 74%
    02:00 +5°C° 0 mm 2 mps 733 mmHg 76%
    03:00 +5°C° 0 mm 2 mps 733 mmHg 79%
    04:00 +5°C° 0 mm 2 mps 733 mmHg 82%
    05:00 +4°C° 0 mm 2 mps 733 mmHg 83%
    06:00 +4°C° 0 mm 2 mps 733 mmHg 84%
    07:00 +4°C° 0 mm 2 mps 733 mmHg 85%
    08:00 +6°C° 0 mm 2 mps 733 mmHg 77%
    09:00 +8°C° 0 mm 2 mps 733 mmHg 69%
    10:00 +11°C° 0 mm 1 mps 733 mmHg 61%
    11:00 +13°C° 0 mm 2 mps 733 mmHg 50%
    12:00 +14°C° 0 mm 2 mps 733 mmHg 39%
    13:00 +15°C° 0 mm 2 mps 733 mmHg 28%
    14:00 +15°C° 0 mm 2 mps 732 mmHg 29%
    15:00 +15°C° 0 mm 2 mps 732 mmHg 30%
    16:00 +14°C° 0 mm 1 mps 732 mmHg 31%
    17:00 +12°C° 0 mm 1 mps 731 mmHg 38%
    18:00 +10°C° 0 mm 1 mps 731 mmHg 45%
    19:00 +7°C° 0 mm 0 mps 731 mmHg 51%
    20:00 +8°C° 0 mm 1 mps 731 mmHg 54%
    21:00 +7°C° 0 mm 1 mps 731 mmHg 57%
    22:00 +7°C° 0 mm 1 mps 731 mmHg 60%
    23:00 +6°C° 0 mm 1 mps 730 mmHg 60%
    Show more